owner,sensor,date,latitude,longitude,air_temperature,qcFlag 
DISL,ioos:station:DISL:BSCA:1,2018-04-01T00:00:00Z,30.3288,-87.8293,18.4,11111222 
DISL,ioos:station:DISL:BSCA:1,2018-04-01T00:30:00Z,30.3288,-87.8293,18.4,11111222 
DISL,ioos:station:DISL:BSCA:1,2018-04-01T01:00:00Z,30.3288,-87.8293,18.3,11111222 
DISL,ioos:station:DISL:BSCA:1,2018-04-01T01:30:00Z,30.3288,-87.8293,18.4,11111222 
DISL,ioos:station:DISL:BSCA:1,2018-04-01T02:00:00Z,30.3288,-87.8293,18.4,11111222 
DISL,ioos:station:DISL:BSCA:1,2018-04-01T02:30:00Z,30.3288,-87.8293,18.4,11111222 
DISL,ioos:station:DISL:BSCA:1,2018-04-01T03:00:00Z,30.3288,-87.8293,18.4,11111222 
DISL,ioos:station:DISL:BSCA:1,2018-04-01T03:30:00Z,30.3288,-87.8293,18.5,11111222 
DISL,ioos:station:DISL:BSCA:1,2018-04-01T04:00:00Z,30.3288,-87.8293,18.4,11111222 
DISL,ioos:station:DISL:BSCA:1,2018-04-01T04:30:00Z,30.3288,-87.8293,18.5,11111222 
DISL,ioos:station:DISL:BSCA:1,2018-04-01T05:00:00Z,30.3288,-87.8293,18.1,11111222 
DISL,ioos:station:DISL:BSCA:1,2018-04-01T05:30:00Z,30.3288,-87.8293,16.2,11111222 
DISL,ioos:station:DISL:BSCA:1,2018-04-01T06:00:00Z,30.3288,-87.8293,15.2,11111222 
DISL,ioos:station:DISL:BSCA:1,2018-04-01T06:30:00Z,30.3288,-87.8293,15.3,11111222 
DISL,ioos:station:DISL:BSCA:1,2018-04-01T07:00:00Z,30.3288,-87.8293,15.3,11111222 
DISL,ioos:station:DISL:BSCA:1,2018-04-01T07:30:00Z,30.3288,-87.8293,15.5,11111222 
DISL,ioos:station:DISL:BSCA:1,2018-04-01T08:00:00Z,30.3288,-87.8293,16.05,1111122 
DISL,ioos:station:DISL:BSCA:1,2018-04-01T10:00:00Z,30.3288,-87.8293,13.24,1111122 
DISL,ioos:station:DISL:BSCA:1,2018-04-01T10:30:00Z,30.3288,-87.8293,13.0,11111222 
DISL,ioos:station:DISL:BSCA:1,2018-04-01T11:00:00Z,30.3288,-87.8293,13.19,1111122 
DISL,ioos:station:DISL:BSCA:1,2018-04-01T11:30:00Z,30.3288,-87.8293,13.0,11111222 
DISL,ioos:station:DISL:BSCA:1,2018-04-01T12:00:00Z,30.3288,-87.8293,12.54,1111122 
DISL,ioos:station:DISL:BSCA:1,2018-04-01T12:30:00Z,30.3288,-87.8293,13.1,11111222 
DISL,ioos:station:DISL:BSCA:1,2018-04-01T13:00:00Z,30.3288,-87.8293,13.38,1111122 
DISL,ioos:station:DISL:BSCA:1,2018-04-01T13:30:00Z,30.3288,-87.8293,14.7,11111222 
DISL,ioos:station:DISL:BSCA:1,2018-04-01T13:32:00Z,30.3288,-87.8293,14.6,1111122 
DISL,ioos:station:DISL:BSCA:1,2018-04-01T14:00:00Z,30.3288,-87.8293,15.9,11111222 
DISL,ioos:station:DISL:BSCA:1,2018-04-01T14:30:00Z,30.3288,-87.8293,17.2,11111222 
DISL,ioos:station:DISL:BSCA:1,2018-04-01T15:00:00Z,30.3288,-87.8293,18.4,11111222 
DISL,ioos:station:DISL:BSCA:1,2018-04-01T15:08:00Z,30.3288,-87.8293,18.54,1111122 
DISL,ioos:station:DISL:BSCA:1,2018-04-01T15:24:00Z,30.3288,-87.8293,19.08,1111122 
DISL,ioos:station:DISL:BSCA:1,2018-04-01T16:12:00Z,30.3288,-87.8293,20.37,1111122 
DISL,ioos:station:DISL:BSCA:1,2018-04-02T16:14:00Z,30.3288,-87.8293,21.95,1111122 
DISL,ioos:station:DISL:BSCA:1,2018-04-02T17:18:00Z,30.3288,-87.8293,22.52,1111122 
DISL,ioos:station:DISL:BSCA:1,2018-04-04T16:46:00Z,30.3288,-87.8293,15.51,1111122 
DISL,ioos:station:DISL:BSCA:1,2018-04-04T21:00:00Z,30.3288,-87.8293,19.0,11111222 
DISL,ioos:station:DISL:BSCA:1,2018-04-04T21:30:00Z,30.3288,-87.8293,19.53,1111122 
DISL,ioos:station:DISL:BSCA:1,2018-04-04T22:00:00Z,30.3288,-87.8293,19.8,11111222 
DISL,ioos:station:DISL:BSCA:1,2018-04-04T22:30:00Z,30.3288,-87.8293,19.79,1111122 
DISL,ioos:station:DISL:BSCA:1,2018-04-04T23:00:00Z,30.3288,-87.8293,19.5,11111222 
DISL,ioos:station:DISL:BSCA:1,2018-04-04T23:30:00Z,30.3288,-87.8293,19.22,1111122 
DISL,ioos:station:DISL:BSCA:1,2018-04-05T00:00:00Z,30.3288,-87.8293,18.7,11111222 
DISL,ioos:station:DISL:BSCA:1,2018-04-05T00:30:00Z,30.3288,-87.8293,18.0,1111122 
DISL,ioos:station:DISL:BSCA:1,2018-04-05T01:00:00Z,30.3288,-87.8293,17.6,11111222 
DISL,ioos:station:DISL:BSCA:1,2018-04-05T01:30:00Z,30.3288,-87.8293,17.4,1111122 
DISL,ioos:station:DISL:BSCA:1,2018-04-05T02:00:00Z,30.3288,-87.8293,17.2,11111222 
DISL,ioos:station:DISL:BSCA:1,2018-04-05T02:30:00Z,30.3288,-87.8293,16.39,1111122 
DISL,ioos:station:DISL:BSCA:1,2018-04-05T03:00:00Z,30.3288,-87.8293,15.5,11111222 
DISL,ioos:station:DISL:BSCA:1,2018-04-05T03:30:00Z,30.3288,-87.8293,14.8,1111122 
DISL,ioos:station:DISL:BSCA:1,2018-04-05T04:00:00Z,30.3288,-87.8293,14.3,11111222 
DISL,ioos:station:DISL:BSCA:1,2018-04-05T04:30:00Z,30.3288,-87.8293,13.78,1111122 
DISL,ioos:station:DISL:BSCA:1,2018-04-05T05:00:00Z,30.3288,-87.8293,13.3,11111222 
DISL,ioos:station:DISL:BSCA:1,2018-04-05T05:30:00Z,30.3288,-87.8293,12.97,1111122 
DISL,ioos:station:DISL:BSCA:1,2018-04-05T06:00:00Z,30.3288,-87.8293,12.7,11111222 
DISL,ioos:station:DISL:BSCA:1,2018-04-05T06:30:00Z,30.3288,-87.8293,12.51,1111122 
DISL,ioos:station:DISL:BSCA:1,2018-04-05T07:00:00Z,30.3288,-87.8293,12.5,11111222 
DISL,ioos:station:DISL:BSCA:1,2018-04-05T07:30:00Z,30.3288,-87.8293,12.1,11111222 
DISL,ioos:station:DISL:BSCA:1,2018-04-05T07:31:00Z,30.3288,-87.8293,12.34,1111122 
DISL,ioos:station:DISL:BSCA:1,2018-04-05T08:00:00Z,30.3288,-87.8293,11.8,11111222 
DISL,ioos:station:DISL:BSCA:1,2018-04-05T08:30:00Z,30.3288,-87.8293,11.36,1111122 
DISL,ioos:station:DISL:BSCA:1,2018-04-05T09:00:00Z,30.3288,-87.8293,10.7,11111222 
DISL,ioos:station:DISL:BSCA:1,2018-04-05T09:30:00Z,30.3288,-87.8293,10.41,1111122 
DISL,ioos:station:DISL:BSCA:1,2018-04-05T10:00:00Z,30.3288,-87.8293,10.4,11111222 
DISL,ioos:station:DISL:BSCA:1,2018-04-05T10:30:00Z,30.3288,-87.8293,9.7,11111222 
DISL,ioos:station:DISL:BSCA:1,2018-04-05T10:31:00Z,30.3288,-87.8293,9.73,1111122 
DISL,ioos:station:DISL:BSCA:1,2018-04-05T11:00:00Z,30.3288,-87.8293,9.5,11111222 
DISL,ioos:station:DISL:BSCA:1,2018-04-05T11:30:00Z,30.3288,-87.8293,9.3,11111222 
DISL,ioos:station:DISL:BSCA:1,2018-04-05T11:34:00Z,30.3288,-87.8293,9.32,1111122 
DISL,ioos:station:DISL:BSCA:1,2018-04-05T12:00:00Z,30.3288,-87.8293,9.2,11111222 
DISL,ioos:station:DISL:BSCA:1,2018-04-05T12:30:00Z,30.3288,-87.8293,9.5,11111222 
DISL,ioos:station:DISL:BSCA:1,2018-04-05T12:33:00Z,30.3288,-87.8293,9.39,1111122 
DISL,ioos:station:DISL:BSCA:1,2018-04-05T13:00:00Z,30.3288,-87.8293,9.7,11111222 
DISL,ioos:station:DISL:BSCA:1,2018-04-05T13:30:00Z,30.3288,-87.8293,10.3,11111222 
DISL,ioos:station:DISL:BSCA:1,2018-04-05T13:31:00Z,30.3288,-87.8293,10.54,1111122 
DISL,ioos:station:DISL:BSCA:1,2018-04-05T14:30:00Z,30.3288,-87.8293,12.0,11111222 
DISL,ioos:station:DISL:BSCA:1,2018-04-05T14:35:00Z,30.3288,-87.8293,12.04,1111122 
DISL,ioos:station:DISL:BSCA:1,2018-04-05T15:00:00Z,30.3288,-87.8293,12.8,11111222 
DISL,ioos:station:DISL:BSCA:1,2018-04-06T09:30:00Z,30.3288,-87.8293,15.2,11111222 
DISL,ioos:station:DISL:BSCA:1,2018-04-06T09:31:00Z,30.3288,-87.8293,15.34,1111122 
DISL,ioos:station:DISL:BSCA:1,2018-04-06T10:00:00Z,30.3288,-87.8293,14.7,11111222 
DISL,ioos:station:DISL:BSCA:1,2018-04-06T10:30:00Z,30.3288,-87.8293,15.0,11111222 
DISL,ioos:station:DISL:BSCA:1,2018-04-06T10:31:00Z,30.3288,-87.8293,15.14,1111122 
DISL,ioos:station:DISL:BSCA:1,2018-04-06T11:00:00Z,30.3288,-87.8293,14.9,11111222 
DISL,ioos:station:DISL:BSCA:1,2018-04-06T11:30:00Z,30.3288,-87.8293,16.5,11111222 
DISL,ioos:station:DISL:BSCA:1,2018-04-06T11:31:00Z,30.3288,-87.8293,16.56,1111122 
DISL,ioos:station:DISL:BSCA:1,2018-04-06T12:00:00Z,30.3288,-87.8293,15.0,11111222 
DISL,ioos:station:DISL:BSCA:1,2018-04-06T12:30:00Z,30.3288,-87.8293,16.5,11111222 
DISL,ioos:station:DISL:BSCA:1,2018-04-06T12:31:00Z,30.3288,-87.8293,16.56,1111122 
DISL,ioos:station:DISL:BSCA:1,2018-04-06T16:00:00Z,30.3288,-87.8293,20.2,11111222 
DISL,ioos:station:DISL:BSCA:1,2018-04-06T16:30:00Z,30.3288,-87.8293,20.3,11111222 
DISL,ioos:station:DISL:BSCA:1,2018-04-06T16:54:00Z,30.3288,-87.8293,20.5,1111122 
DISL,ioos:station:DISL:BSCA:1,2018-04-06T17:00:00Z,30.3288,-87.8293,20.5,11111222 
DISL,ioos:station:DISL:BSCA:1,2018-04-06T17:30:00Z,30.3288,-87.8293,20.9,11111222 
DISL,ioos:station:DISL:BSCA:1,2018-04-06T18:00:00Z,30.3288,-87.8293,20.8,11111222 
DISL,ioos:station:DISL:BSCA:1,2018-04-06T18:30:00Z,30.3288,-87.8293,21.0,11111222 
DISL,ioos:station:DISL:BSCA:1,2018-04-06T19:10:00Z,30.3288,-87.8293,21.2,1111122 
DISL,ioos:station:DISL:BSCA:1,2018-04-07T07:12:00Z,30.3288,-87.8293,21.29,1111122 
DISL,ioos:station:DISL:BSCA:1,2018-04-07T11:59:00Z,30.3288,-87.8293,18.58,1111122 
DISL,ioos:station:DISL:BSCA:1,2018-04-07T14:07:00Z,30.3288,-87.8293,18.62,1111122 
DISL,ioos:station:DISL:BSCA:1,2018-04-07T14:39:00Z,30.3288,-87.8293,18.41,1111122 
DISL,ioos:station:DISL:BSCA:1,2018-04-07T15:11:00Z,30.3288,-87.8293,18.37,1111122 
DISL,ioos:station:DISL:BSCA:1,2018-04-08T12:00:00Z,30.3288,-87.8293,7.9,11111222 
DISL,ioos:station:DISL:BSCA:1,2018-04-08T12:30:00Z,30.3288,-87.8293,7.8,11111222 
DISL,ioos:station:DISL:BSCA:1,2018-04-08T13:00:00Z,30.3288,-87.8293,7.8,11111222 
DISL,ioos:station:DISL:BSCA:1,2018-04-08T13:30:00Z,30.3288,-87.8293,7.9,11111222 
DISL,ioos:station:DISL:BSCA:1,2018-04-08T14:00:00Z,30.3288,-87.8293,8.0,11111222 
DISL,ioos:station:DISL:BSCA:1,2018-04-08T14:30:00Z,30.3288,-87.8293,7.8,11111222 
DISL,ioos:station:DISL:BSCA:1,2018-04-08T15:00:00Z,30.3288,-87.8293,8.0,11111222 
DISL,ioos:station:DISL:BSCA:1,2018-04-08T15:30:00Z,30.3288,-87.8293,9.1,11111222 
DISL,ioos:station:DISL:BSCA:1,2018-04-08T16:00:00Z,30.3288,-87.8293,9.7,11111222 
DISL,ioos:station:DISL:BSCA:1,2018-04-08T16:30:00Z,30.3288,-87.8293,10.3,11111222 
DISL,ioos:station:DISL:BSCA:1,2018-04-08T17:00:00Z,30.3288,-87.8293,10.9,11111222 
DISL,ioos:station:DISL:BSCA:1,2018-04-08T17:30:00Z,30.3288,-87.8293,11.2,11111222 
DISL,ioos:station:DISL:BSCA:1,2018-04-08T18:00:00Z,30.3288,-87.8293,11.9,11111222 
DISL,ioos:station:DISL:BSCA:1,2018-04-08T18:30:00Z,30.3288,-87.8293,12.6,11111222 
DISL,ioos:station:DISL:BSCA:1,2018-04-08T19:00:00Z,30.3288,-87.8293,12.8,11111222 
DISL,ioos:station:DISL:BSCA:1,2018-04-08T19:30:00Z,30.3288,-87.8293,13.0,11111222 
DISL,ioos:station:DISL:BSCA:1,2018-04-08T20:00:00Z,30.3288,-87.8293,13.2,11111222 
DISL,ioos:station:DISL:BSCA:1,2018-04-08T20:30:00Z,30.3288,-87.8293,13.3,11111222 
DISL,ioos:station:DISL:BSCA:1,2018-04-08T21:00:00Z,30.3288,-87.8293,13.3,11111222 
DISL,ioos:station:DISL:BSCA:1,2018-04-08T21:30:00Z,30.3288,-87.8293,13.4,11111222 
DISL,ioos:station:DISL:BSCA:1,2018-04-08T22:00:00Z,30.3288,-87.8293,13.5,11111222 
DISL,ioos:station:DISL:BSCA:1,2018-04-08T22:30:00Z,30.3288,-87.8293,13.9,11111222 
DISL,ioos:station:DISL:BSCA:1,2018-04-08T23:00:00Z,30.3288,-87.8293,14.0,11111222 
DISL,ioos:station:DISL:BSCA:1,2018-04-08T23:30:00Z,30.3288,-87.8293,14.1,11111222 
DISL,ioos:station:DISL:BSCA:1,2018-04-09T00:00:00Z,30.3288,-87.8293,13.8,11111222 
DISL,ioos:station:DISL:BSCA:1,2018-04-09T00:30:00Z,30.3288,-87.8293,14.2,11111222 
DISL,ioos:station:DISL:BSCA:1,2018-04-09T01:00:00Z,30.3288,-87.8293,14.3,11111222 
DISL,ioos:station:DISL:BSCA:1,2018-04-09T01:30:00Z,30.3288,-87.8293,14.5,11111222 
DISL,ioos:station:DISL:BSCA:1,2018-04-09T02:00:00Z,30.3288,-87.8293,14.5,11111222 
DISL,ioos:station:DISL:BSCA:1,2018-04-09T02:30:00Z,30.3288,-87.8293,14.7,11111222 
DISL,ioos:station:DISL:BSCA:1,2018-04-09T03:00:00Z,30.3288,-87.8293,14.8,11111222 
DISL,ioos:station:DISL:BSCA:1,2018-04-09T03:30:00Z,30.3288,-87.8293,15.3,11111222 
DISL,ioos:station:DISL:BSCA:1,2018-04-09T04:00:00Z,30.3288,-87.8293,15.5,11111222 
DISL,ioos:station:DISL:BSCA:1,2018-04-09T04:30:00Z,30.3288,-87.8293,15.7,11111222 
DISL,ioos:station:DISL:BSCA:1,2018-04-09T05:00:00Z,30.3288,-87.8293,17.0,11111222 
DISL,ioos:station:DISL:BSCA:1,2018-04-09T05:30:00Z,30.3288,-87.8293,17.2,11111222 
DISL,ioos:station:DISL:BSCA:1,2018-04-09T06:00:00Z,30.3288,-87.8293,16.7,11111222 
DISL,ioos:station:DISL:BSCA:1,2018-04-09T06:30:00Z,30.3288,-87.8293,16.2,11111222 
DISL,ioos:station:DISL:BSCA:1,2018-04-09T07:00:00Z,30.3288,-87.8293,16.3,11111222 
DISL,ioos:station:DISL:BSCA:1,2018-04-09T07:30:00Z,30.3288,-87.8293,16.6,11111222 
DISL,ioos:station:DISL:BSCA:1,2018-04-09T08:00:00Z,30.3288,-87.8293,16.5,11111222 
DISL,ioos:station:DISL:BSCA:1,2018-04-09T08:30:00Z,30.3288,-87.8293,16.7,11111222 
DISL,ioos:station:DISL:BSCA:1,2018-04-09T09:00:00Z,30.3288,-87.8293,16.9,11111222 
DISL,ioos:station:DISL:BSCA:1,2018-04-09T09:30:00Z,30.3288,-87.8293,17.0,11111222 
DISL,ioos:station:DISL:BSCA:1,2018-04-09T10:00:00Z,30.3288,-87.8293,16.7,11111222 
DISL,ioos:station:DISL:BSCA:1,2018-04-09T10:30:00Z,30.3288,-87.8293,16.5,11111222 
DISL,ioos:station:DISL:BSCA:1,2018-04-09T11:00:00Z,30.3288,-87.8293,16.5,11111222 
DISL,ioos:station:DISL:BSCA:1,2018-04-09T11:30:00Z,30.3288,-87.8293,16.1,11111222 
DISL,ioos:station:DISL:BSCA:1,2018-04-09T12:00:00Z,30.3288,-87.8293,15.7,11111222 
DISL,ioos:station:DISL:BSCA:1,2018-04-09T12:30:00Z,30.3288,-87.8293,15.7,11111222 
DISL,ioos:station:DISL:BSCA:1,2018-04-09T13:00:00Z,30.3288,-87.8293,15.5,11111222 
DISL,ioos:station:DISL:BSCA:1,2018-04-09T13:30:00Z,30.3288,-87.8293,15.2,11111222 
DISL,ioos:station:DISL:BSCA:1,2018-04-09T14:00:00Z,30.3288,-87.8293,15.1,11111222 
DISL,ioos:station:DISL:BSCA:1,2018-04-09T14:30:00Z,30.3288,-87.8293,15.2,11111222 
DISL,ioos:station:DISL:BSCA:1,2018-04-09T15:00:00Z,30.3288,-87.8293,15.7,11111222 
DISL,ioos:station:DISL:BSCA:1,2018-04-09T15:30:00Z,30.3288,-87.8293,16.7,11111222 
DISL,ioos:station:DISL:BSCA:1,2018-04-09T16:00:00Z,30.3288,-87.8293,17.6,11111222 
DISL,ioos:station:DISL:BSCA:1,2018-04-09T16:30:00Z,30.3288,-87.8293,18.0,11111222 
DISL,ioos:station:DISL:BSCA:1,2018-04-09T17:00:00Z,30.3288,-87.8293,18.5,11111222 
DISL,ioos:station:DISL:BSCA:1,2018-04-09T17:30:00Z,30.3288,-87.8293,18.8,11111222 
DISL,ioos:station:DISL:BSCA:1,2018-04-09T18:00:00Z,30.3288,-87.8293,19.4,11111222 
DISL,ioos:station:DISL:BSCA:1,2018-04-09T18:30:00Z,30.3288,-87.8293,19.7,11111222 
DISL,ioos:station:DISL:BSCA:1,2018-04-09T19:00:00Z,30.3288,-87.8293,20.2,11111222 
DISL,ioos:station:DISL:BSCA:1,2018-04-09T19:30:00Z,30.3288,-87.8293,20.5,11111222 
DISL,ioos:station:DISL:BSCA:1,2018-04-09T20:00:00Z,30.3288,-87.8293,21.0,11111222 
DISL,ioos:station:DISL:BSCA:1,2018-04-09T20:30:00Z,30.3288,-87.8293,21.5,11111222 
DISL,ioos:station:DISL:BSCA:1,2018-04-09T20:56:00Z,30.3288,-87.8293,21.47,1111122 
DISL,ioos:station:DISL:BSCA:1,2018-04-09T21:00:00Z,30.3288,-87.8293,21.4,11111222 
DISL,ioos:station:DISL:BSCA:1,2018-04-09T21:30:00Z,30.3288,-87.8293,20.1,11111222 
DISL,ioos:station:DISL:BSCA:1,2018-04-09T22:00:00Z,30.3288,-87.8293,20.5,11111222 
DISL,ioos:station:DISL:BSCA:1,2018-04-09T22:01:00Z,30.3288,-87.8293,20.42,1111122 
DISL,ioos:station:DISL:BSCA:1,2018-04-09T22:30:00Z,30.3288,-87.8293,20.6,11111222 
DISL,ioos:station:DISL:BSCA:1,2018-04-09T23:00:00Z,30.3288,-87.8293,20.6,11111222 
DISL,ioos:station:DISL:BSCA:1,2018-04-09T23:01:00Z,30.3288,-87.8293,20.6,1111122 
DISL,ioos:station:DISL:BSCA:1,2018-04-09T23:30:00Z,30.3288,-87.8293,21.2,11111222 
DISL,ioos:station:DISL:BSCA:1,2018-04-09T23:31:00Z,30.3288,-87.8293,21.15,1111122 
DISL,ioos:station:DISL:BSCA:1,2018-04-10T00:00:00Z,30.3288,-87.8293,21.2,11111222 
DISL,ioos:station:DISL:BSCA:1,2018-04-10T00:30:00Z,30.3288,-87.8293,20.0,11111222 
DISL,ioos:station:DISL:BSCA:1,2018-04-10T00:31:00Z,30.3288,-87.8293,20.07,1111122 
DISL,ioos:station:DISL:BSCA:1,2018-04-10T01:00:00Z,30.3288,-87.8293,20.1,11111222 
DISL,ioos:station:DISL:BSCA:1,2018-04-10T01:30:00Z,30.3288,-87.8293,20.5,11111222 
DISL,ioos:station:DISL:BSCA:1,2018-04-10T01:31:00Z,30.3288,-87.8293,20.51,1111122 
DISL,ioos:station:DISL:BSCA:1,2018-04-10T02:00:00Z,30.3288,-87.8293,20.6,11111222 
DISL,ioos:station:DISL:BSCA:1,2018-04-10T02:30:00Z,30.3288,-87.8293,20.3,11111222 
DISL,ioos:station:DISL:BSCA:1,2018-04-10T02:31:00Z,30.3288,-87.8293,20.27,1111122 
DISL,ioos:station:DISL:BSCA:1,2018-04-10T03:00:00Z,30.3288,-87.8293,20.2,11111222 
DISL,ioos:station:DISL:BSCA:1,2018-04-10T03:30:00Z,30.3288,-87.8293,20.0,11111222 
DISL,ioos:station:DISL:BSCA:1,2018-04-10T03:31:00Z,30.3288,-87.8293,19.97,1111122 
DISL,ioos:station:DISL:BSCA:1,2018-04-10T04:00:00Z,30.3288,-87.8293,19.8,11111222 
DISL,ioos:station:DISL:BSCA:1,2018-04-10T04:30:00Z,30.3288,-87.8293,19.5,11111222 
DISL,ioos:station:DISL:BSCA:1,2018-04-10T04:31:00Z,30.3288,-87.8293,19.49,1111122 
DISL,ioos:station:DISL:BSCA:1,2018-04-10T18:31:00Z,30.3288,-87.8293,21.91,1111122 
DISL,ioos:station:DISL:BSCA:1,2018-04-10T19:00:00Z,30.3288,-87.8293,20.4,11111222 
DISL,ioos:station:DISL:BSCA:1,2018-04-10T19:30:00Z,30.3288,-87.8293,20.8,11111222 
DISL,ioos:station:DISL:BSCA:1,2018-04-10T20:00:00Z,30.3288,-87.8293,20.8,11111222 
DISL,ioos:station:DISL:BSCA:1,2018-04-10T20:01:00Z,30.3288,-87.8293,20.94,1111122 
DISL,ioos:station:DISL:BSCA:1,2018-04-10T20:30:00Z,30.3288,-87.8293,21.4,11111222 
DISL,ioos:station:DISL:BSCA:1,2018-04-10T20:57:00Z,30.3288,-87.8293,21.78,1111122 
DISL,ioos:station:DISL:BSCA:1,2018-04-10T21:00:00Z,30.3288,-87.8293,21.9,11111222 
DISL,ioos:station:DISL:BSCA:1,2018-04-10T21:30:00Z,30.3288,-87.8293,22.2,11111222 
DISL,ioos:station:DISL:BSCA:1,2018-04-10T21:31:00Z,30.3288,-87.8293,22.29,1111122 
DISL,ioos:station:DISL:BSCA:1,2018-04-10T22:00:00Z,30.3288,-87.8293,22.7,11111222 
DISL,ioos:station:DISL:BSCA:1,2018-04-10T22:30:00Z,30.3288,-87.8293,22.7,11111222 
DISL,ioos:station:DISL:BSCA:1,2018-04-10T23:00:00Z,30.3288,-87.8293,22.7,11111222 
DISL,ioos:station:DISL:BSCA:1,2018-04-10T23:01:00Z,30.3288,-87.8293,22.83,1111122 
DISL,ioos:station:DISL:BSCA:1,2018-04-10T23:30:00Z,30.3288,-87.8293,22.7,11111222 
DISL,ioos:station:DISL:BSCA:1,2018-04-10T23:31:00Z,30.3288,-87.8293,22.76,1111122 
DISL,ioos:station:DISL:BSCA:1,2018-04-11T00:00:00Z,30.3288,-87.8293,22.2,11111222 
DISL,ioos:station:DISL:BSCA:1,2018-04-11T00:30:00Z,30.3288,-87.8293,21.4,11111222 
DISL,ioos:station:DISL:BSCA:1,2018-04-11T00:31:00Z,30.3288,-87.8293,21.27,1111122 
DISL,ioos:station:DISL:BSCA:1,2018-04-11T01:00:00Z,30.3288,-87.8293,21.0,11111222 
DISL,ioos:station:DISL:BSCA:1,2018-04-11T01:30:00Z,30.3288,-87.8293,20.6,11111222 
DISL,ioos:station:DISL:BSCA:1,2018-04-11T01:31:00Z,30.3288,-87.8293,20.54,1111122 
DISL,ioos:station:DISL:BSCA:1,2018-04-11T02:00:00Z,30.3288,-87.8293,20.2,11111222 
DISL,ioos:station:DISL:BSCA:1,2018-04-11T02:30:00Z,30.3288,-87.8293,19.6,11111222 
DISL,ioos:station:DISL:BSCA:1,2018-04-11T02:31:00Z,30.3288,-87.8293,19.66,1111122 
DISL,ioos:station:DISL:BSCA:1,2018-04-11T03:00:00Z,30.3288,-87.8293,19.5,11111222 
DISL,ioos:station:DISL:BSCA:1,2018-04-11T03:30:00Z,30.3288,-87.8293,18.9,11111222 
DISL,ioos:station:DISL:BSCA:1,2018-04-11T03:31:00Z,30.3288,-87.8293,18.81,1111122 
DISL,ioos:station:DISL:BSCA:1,2018-04-11T04:00:00Z,30.3288,-87.8293,18.4,11111222 
DISL,ioos:station:DISL:BSCA:1,2018-04-11T04:30:00Z,30.3288,-87.8293,18.1,11111222 
DISL,ioos:station:DISL:BSCA:1,2018-04-11T04:34:00Z,30.3288,-87.8293,18.11,1111122 
DISL,ioos:station:DISL:BSCA:1,2018-04-11T05:00:00Z,30.3288,-87.8293,17.4,11111222 
DISL,ioos:station:DISL:BSCA:1,2018-04-11T05:30:00Z,30.3288,-87.8293,16.7,11111222 
DISL,ioos:station:DISL:BSCA:1,2018-04-11T05:31:00Z,30.3288,-87.8293,16.73,1111122 
DISL,ioos:station:DISL:BSCA:1,2018-04-11T06:00:00Z,30.3288,-87.8293,17.3,11111222 
DISL,ioos:station:DISL:BSCA:1,2018-04-11T06:30:00Z,30.3288,-87.8293,16.4,11111222 
DISL,ioos:station:DISL:BSCA:1,2018-04-11T06:31:00Z,30.3288,-87.8293,16.36,1111122 
DISL,ioos:station:DISL:BSCA:1,2018-04-11T07:00:00Z,30.3288,-87.8293,15.9,11111222 
DISL,ioos:station:DISL:BSCA:1,2018-04-11T07:30:00Z,30.3288,-87.8293,15.5,11111222 
DISL,ioos:station:DISL:BSCA:1,2018-04-11T07:31:00Z,30.3288,-87.8293,15.31,1111122 
DISL,ioos:station:DISL:BSCA:1,2018-04-11T08:00:00Z,30.3288,-87.8293,15.2,11111222 
DISL,ioos:station:DISL:BSCA:1,2018-04-11T08:30:00Z,30.3288,-87.8293,14.5,11111222 
DISL,ioos:station:DISL:BSCA:1,2018-04-11T08:31:00Z,30.3288,-87.8293,14.59,1111122 
DISL,ioos:station:DISL:BSCA:1,2018-04-11T09:00:00Z,30.3288,-87.8293,14.2,11111222 
DISL,ioos:station:DISL:BSCA:1,2018-04-11T09:30:00Z,30.3288,-87.8293,13.9,11111222 
DISL,ioos:station:DISL:BSCA:1,2018-04-11T09:31:00Z,30.3288,-87.8293,13.88,1111122 
DISL,ioos:station:DISL:BSCA:1,2018-04-11T10:00:00Z,30.3288,-87.8293,13.2,11111222 
DISL,ioos:station:DISL:BSCA:1,2018-04-11T10:30:00Z,30.3288,-87.8293,12.7,11111222 
DISL,ioos:station:DISL:BSCA:1,2018-04-11T10:31:00Z,30.3288,-87.8293,12.97,1111122 
DISL,ioos:station:DISL:BSCA:1,2018-04-11T13:30:00Z,30.3288,-87.8293,13.8,11111222 
DISL,ioos:station:DISL:BSCA:1,2018-04-11T14:00:00Z,30.3288,-87.8293,15.0,11111222 
DISL,ioos:station:DISL:BSCA:1,2018-04-11T14:30:00Z,30.3288,-87.8293,15.6,11111222 
DISL,ioos:station:DISL:BSCA:1,2018-04-11T15:00:00Z,30.3288,-87.8293,17.0,11111222 
DISL,ioos:station:DISL:BSCA:1,2018-04-11T15:30:00Z,30.3288,-87.8293,18.0,11111222 
DISL,ioos:station:DISL:BSCA:1,2018-04-11T16:00:00Z,30.3288,-87.8293,17.9,11111222 
DISL,ioos:station:DISL:BSCA:1,2018-04-11T16:30:00Z,30.3288,-87.8293,18.3,11111222 
DISL,ioos:station:DISL:BSCA:1,2018-04-11T17:00:00Z,30.3288,-87.8293,19.0,11111222 
DISL,ioos:station:DISL:BSCA:1,2018-04-11T17:30:00Z,30.3288,-87.8293,18.4,11111222 
DISL,ioos:station:DISL:BSCA:1,2018-04-11T18:00:00Z,30.3288,-87.8293,19.29,1111122 
DISL,ioos:station:DISL:BSCA:1,2018-04-11T19:00:00Z,30.3288,-87.8293,19.39,1111122 
DISL,ioos:station:DISL:BSCA:1,2018-04-11T19:30:00Z,30.3288,-87.8293,19.7,11111222 
DISL,ioos:station:DISL:BSCA:1,2018-04-11T20:00:00Z,30.3288,-87.8293,20.1,1111122 
DISL,ioos:station:DISL:BSCA:1,2018-04-11T21:00:00Z,30.3288,-87.8293,20.81,1111122 
DISL,ioos:station:DISL:BSCA:1,2018-04-11T22:00:00Z,30.3288,-87.8293,21.47,1111122 
DISL,ioos:station:DISL:BSCA:1,2018-04-11T22:30:00Z,30.3288,-87.8293,21.5,1111122 
DISL,ioos:station:DISL:BSCA:1,2018-04-11T23:30:00Z,30.3288,-87.8293,19.9,11111222 
DISL,ioos:station:DISL:BSCA:1,2018-04-11T23:31:00Z,30.3288,-87.8293,19.82,1111122 
DISL,ioos:station:DISL:BSCA:1,2018-04-12T00:03:00Z,30.3288,-87.8293,19.59,1111122 
DISL,ioos:station:DISL:BSCA:1,2018-04-12T01:30:00Z,30.3288,-87.8293,19.4,11111222 
DISL,ioos:station:DISL:BSCA:1,2018-04-12T02:00:00Z,30.3288,-87.8293,19.4,11111222 
DISL,ioos:station:DISL:BSCA:1,2018-04-12T02:03:00Z,30.3288,-87.8293,19.36,1111122 
DISL,ioos:station:DISL:BSCA:1,2018-04-12T02:30:00Z,30.3288,-87.8293,19.4,11111222 
DISL,ioos:station:DISL:BSCA:1,2018-04-12T03:00:00Z,30.3288,-87.8293,19.29,1111122 
DISL,ioos:station:DISL:BSCA:1,2018-04-12T03:30:00Z,30.3288,-87.8293,19.3,11111222 
DISL,ioos:station:DISL:BSCA:1,2018-04-12T04:00:00Z,30.3288,-87.8293,19.25,1111122 
DISL,ioos:station:DISL:BSCA:1,2018-04-12T04:30:00Z,30.3288,-87.8293,19.3,11111222 
DISL,ioos:station:DISL:BSCA:1,2018-04-12T05:00:00Z,30.3288,-87.8293,19.26,1111122 
DISL,ioos:station:DISL:BSCA:1,2018-04-12T05:30:00Z,30.3288,-87.8293,19.1,11111222 
DISL,ioos:station:DISL:BSCA:1,2018-04-12T06:00:00Z,30.3288,-87.8293,18.99,1111122 
DISL,ioos:station:DISL:BSCA:1,2018-04-12T06:30:00Z,30.3288,-87.8293,18.92,1111122 
DISL,ioos:station:DISL:BSCA:1,2018-04-12T07:00:00Z,30.3288,-87.8293,19.0,11111222 
DISL,ioos:station:DISL:BSCA:1,2018-04-12T07:30:00Z,30.3288,-87.8293,18.9,11111222 
DISL,ioos:station:DISL:BSCA:1,2018-04-12T08:00:00Z,30.3288,-87.8293,18.89,1111122 
DISL,ioos:station:DISL:BSCA:1,2018-04-12T08:30:00Z,30.3288,-87.8293,16.0,11111222 
DISL,ioos:station:DISL:BSCA:1,2018-04-12T09:00:00Z,30.3288,-87.8293,15.17,1111122 
DISL,ioos:station:DISL:BSCA:1,2018-04-12T09:30:00Z,30.3288,-87.8293,14.97,1111122 
DISL,ioos:station:DISL:BSCA:1,2018-04-12T10:00:00Z,30.3288,-87.8293,14.7,11111222 
DISL,ioos:station:DISL:BSCA:1,2018-04-12T10:30:00Z,30.3288,-87.8293,14.7,11111222 
DISL,ioos:station:DISL:BSCA:1,2018-04-12T11:00:00Z,30.3288,-87.8293,14.39,1111122 
DISL,ioos:station:DISL:BSCA:1,2018-04-12T11:30:00Z,30.3288,-87.8293,14.3,11111222 
DISL,ioos:station:DISL:BSCA:1,2018-04-12T12:00:00Z,30.3288,-87.8293,14.12,1111122 
DISL,ioos:station:DISL:BSCA:1,2018-04-12T12:30:00Z,30.3288,-87.8293,15.0,11111222 
DISL,ioos:station:DISL:BSCA:1,2018-04-12T13:00:00Z,30.3288,-87.8293,15.65,1111122 
DISL,ioos:station:DISL:BSCA:1,2018-04-12T13:30:00Z,30.3288,-87.8293,16.7,11111222 
DISL,ioos:station:DISL:BSCA:1,2018-04-12T14:00:00Z,30.3288,-87.8293,17.71,1111122 
DISL,ioos:station:DISL:BSCA:1,2018-04-12T14:30:00Z,30.3288,-87.8293,19.1,11111222 